Date,TemperatureHighF,TemperatureAvgF,TemperatureLowF,DewpointHighF,DewpointAvgF,DewpointLowF,HumidityHigh,HumidityAvg,HumidityLow,PressureMaxIn,PressureMinIn,WindSpeedMaxMPH,WindSpeedAvgMPH,GustSpeedMaxMPH,PrecipitationSumIn
2013-1-1,30.4,28.3,22.0,28.1,23.6,13.1,91,82,68,30.00,29.90,5,2,15,0.00
2013-1-2,22.9,15.6,12.4,12.1,8.6,6.6,79,74,56,30.15,30.00,3,0,10,0.00
2013-1-3,30.6,12.1,4.3,19.1,5.9,-1.0,82,76,52,30.14,30.04,10,1,18,0.00
2013-1-4,26.7,26.7,26.7,18.9,18.7,18.2,72,72,71,30.11,30.11,7,3,13,0.00
2013-1-5,35.0,27.8,21.6,22.8,18.1,13.9,77,67,56,30.27,30.04,6,2,11,0.00
2013-1-6,36.4,33.9,30.3,30.1,25.9,23.2,85,72,64,30.11,29.86,7,3,18,0.02
2013-1-7,33.0,28.4,25.3,23.7,21.2,19.7,81,74,65,30.35,30.14,10,4,12,0.02
2013-1-8,29.4,24.3,21.0,22.1,19.2,16.2,84,81,73,30.24,30.14,7,1,8,0.00
2013-1-10,38.9,34.3,27.4,27.4,25.8,24.0,87,72,57,30.50,30.15,4,1,14,0.00
2013-1-11,56.2,47.6,39.0,49.4,39.9,24.6,92,75,53,30.12,29.76,10,5,16,0.29
2013-1-12,60.0,55.7,49.7,55.2,51.5,47.5,95,86,75,29.91,29.76,7,4,12,0.00
2013-1-13,64.2,61.3,52.3,55.1,53.8,49.2,90,77,67,29.76,29.64,13,8,26,0.11
2013-1-14,41.8,32.2,27.0,39.1,24.8,19.0,90,74,64,30.31,29.86,9,3,22,0.03
2013-1-15,31.0,27.0,22.2,20.3,18.8,17.5,83,72,61,30.29,30.01,3,1,11,0.00
2013-1-16,34.6,30.9,29.0,26.7,23.6,19.4,86,74,65,29.99,29.79,6,2,12,0.00
2013-1-17,34.7,32.1,26.6,26.3,24.0,14.0,80,72,60,30.12,29.91,23,2,25,0.00
2013-1-18,26.3,21.1,17.2,14.3,9.6,5.8,72,61,54,30.39,30.13,23,5,25,0.00
2013-1-19,51.6,45.0,31.8,24.6,21.8,16.6,55,40,26,30.09,29.67,21,9,27,0.00
2013-1-20,46.5,30.5,21.3,29.9,15.3,8.0,62,53,42,30.07,29.63,30,6,30,0.00
2013-1-21,21.4,19.1,8.8,13.9,8.0,-3.3,76,62,45,30.04,29.85,21,2,26,0.00
2013-1-22,12.1,7.7,5.0,0.0,-3.7,-7.9,72,59,48,30.23,30.03,18,3,21,0.00
2013-1-23,7.4,3.3,2.0,-0.5,-3.7,-4.9,73,72,69,30.23,30.21,5,0,5,0.00
2013-1-24,14.0,12.5,11.6,8.2,7.0,6.6,81,78,75,30.33,29.99,8,2,9,0.00
2013-1-25,17.5,15.8,10.7,13.2,9.8,0.6,83,77,58,30.43,29.95,6,0,13,0.00
2013-1-26,25.1,21.1,15.7,19.7,14.8,10.6,85,77,59,30.36,30.00,18,1,18,0.01
2013-1-27,29.7,23.7,11.1,18.4,14.0,6.4,84,67,53,30.44,30.18,13,1,13,0.00
2013-1-28,48.0,39.3,28.2,46.4,36.3,18.2,94,89,64,30.18,29.87,11,4,19,0.42
2013-1-29,62.0,55.1,47.7,54.1,49.7,46.1,96,83,64,29.92,29.56,20,7,20,0.05
2013-1-30,66.3,56.8,35.5,55.6,49.1,31.5,89,76,60,29.56,29.05,28,11,32,0.64
2013-1-31,35.5,26.3,20.6,31.7,17.5,8.4,86,69,56,29.70,29.21,30,6,32,0.01
2013-2-1,18.7,14.5,11.7,7.9,3.3,0.2,68,60,54,30.25,29.78,15,4,22,0.00
2013-2-2,22.2,18.0,9.1,18.7,13.0,1.3,86,80,62,30.23,29.88,12,3,13,0.00
2013-2-3,22.2,19.2,16.4,18.7,12.4,8.1,86,75,62,29.96,29.78,18,1,18,0.01
2013-2-4,23.9,17.9,13.8,20.6,12.1,7.3,87,78,70,29.98,29.77,8,1,18,0.00
2013-2-5,27.9,25.2,23.2,23.0,20.6,17.5,89,83,69,29.84,29.75,9,0,9,0.01
2013-2-6,30.4,26.5,21.4,22.9,17.1,10.8,88,68,47,30.23,29.85,8,2,19,0.03
2013-2-7,44.4,31.6,20.3,27.4,19.6,10.0,70,61,45,30.19,29.78,8,4,16,0.03
2013-2-8,38.2,27.9,24.4,35.0,21.4,17.7,89,76,69,30.13,29.65,25,9,29,0.17
2013-2-9,33.5,26.2,23.6,18.3,16.4,14.1,76,67,50,30.33,30.13,18,4,19,0.00
2013-2-10,46.9,34.4,21.8,28.2,17.4,12.8,73,52,33,30.23,29.77,13,4,22,0.00
2013-2-11,52.8,48.8,41.3,40.8,34.3,30.7,90,59,45,29.74,29.57,25,9,25,0.01
2013-2-12,39.9,33.8,28.4,23.9,22.0,20.1,76,62,51,29.98,29.80,10,2,26,0.00
2013-2-13,32.8,27.4,23.6,24.8,21.7,19.2,84,79,71,29.81,29.66,5,0,8,0.00
2013-2-22,39.3,29.9,19.9,34.7,23.7,11.7,90,77,65,30.18,29.84,7,3,22,0.01
2013-2-23,38.8,35.2,28.9,31.3,27.5,21.4,83,74,63,29.87,29.76,2,0,11,0.00
2013-2-24,31.3,28.6,26.1,22.0,20.1,15.1,82,70,61,30.04,29.78,6,2,18,0.00
2013-2-25,41.0,32.5,23.1,23.4,21.5,19.8,87,65,44,30.12,29.94,4,1,12,0.00
2013-2-26,38.0,34.2,30.9,34.2,26.0,19.2,89,73,54,29.94,29.41,12,6,29,0.94
2013-2-27,39.8,37.0,32.8,36.2,33.3,28.2,91,86,77,29.56,29.39,9,5,20,0.27
2013-2-28,34.3,32.1,30.0,29.8,27.9,25.5,88,84,79,29.76,29.49,18,6,20,0.03
2013-3-1,30.0,27.9,25.3,25.9,22.0,17.8,85,78,68,29.91,29.75,19,8,19,0.00
2013-3-2,27.6,25.3,23.3,21.0,18.6,14.8,84,75,62,29.90,29.85,20,5,21,0.00
2013-3-3,26.1,23.1,20.6,20.1,16.3,12.0,86,75,62,29.95,29.86,14,3,14,0.01
2013-3-4,35.2,26.8,16.7,18.8,15.9,12.4,83,64,47,30.04,29.93,11,1,14,0.01
2013-3-5,38.5,26.1,19.9,17.5,15.3,12.4,75,65,38,30.00,29.79,13,2,14,0.00
2013-3-6,41.2,35.4,30.9,29.5,27.4,20.4,90,73,49,30.04,29.51,12,3,24,0.13
2013-3-7,39.8,31.6,29.8,29.2,26.5,24.3,86,82,59,30.22,30.04,16,2,19,0.00
2013-3-8,34.9,28.1,26.1,24.7,22.1,20.5,82,78,66,30.35,30.22,15,5,18,0.00
2013-3-14,31.1,29.6,28.4,19.8,19.4,18.9,67,65,62,30.06,30.03,0,0,0,0.00
2013-3-15,46.9,36.8,26.7,36.0,26.2,18.0,87,66,52,30.01,29.73,5,2,15,0.03
2013-3-26,38.2,34.1,33.2,30.1,28.1,26.6,82,78,68,29.99,29.87,12,4,18,0.02
2013-3-27,42.3,37.5,31.5,28.6,25.3,21.6,88,62,49,30.06,29.98,19,4,24,0.01
2013-3-28,43.5,40.2,32.8,27.1,24.8,21.1,67,54,45,30.16,30.05,15,3,18,0.00
2013-3-29,51.0,40.6,31.5,28.1,23.1,16.7,78,52,30,30.16,30.06,20,2,20,0.00
2013-3-30,55.0,47.3,25.4,26.6,20.7,16.7,80,37,23,30.13,29.97,13,3,14,0.00
2013-3-31,48.9,47.2,45.8,43.0,41.5,39.6,84,80,74,29.64,29.58,10,4,14,0.02
2013-4-1,47.4,39.5,34.6,37.9,24.1,11.0,74,56,32,29.84,29.57,16,8,27,0.00
2013-4-2,37.2,30.5,21.7,14.4,12.0,8.5,64,47,30,30.10,29.95,7,3,19,0.00
2013-4-3,37.2,27.8,23.1,16.0,10.6,6.5,72,49,29,30.32,30.10,14,2,30,0.00
2013-4-4,53.1,42.8,23.9,12.5,8.6,2.8,52,27,13,30.30,29.83,10,2,11,0.00
2013-4-5,49.5,35.6,29.4,28.1,18.0,11.0,62,49,32,30.10,29.81,13,1,29,0.00
2013-4-6,56.6,37.7,24.7,19.3,13.3,7.7,65,42,14,30.16,29.87,11,3,18,0.00
2013-4-7,72.0,59.7,48.3,41.0,32.7,10.7,63,38,18,29.87,29.70,15,6,28,0.00
2013-4-8,65.6,48.7,41.2,50.2,38.9,34.6,78,69,56,29.89,29.80,13,2,15,0.00
2013-4-9,78.8,71.7,53.3,52.7,50.3,43.0,72,47,38,29.94,29.75,16,3,20,0.00
2013-4-10,68.6,67.9,67.3,53.4,52.0,50.8,61,57,53,29.77,29.76,10,1,10,0.00
2013-6-1,80.8,73.3,65.3,68.3,64.1,61.3,90,74,60,29.82,29.62,5,2,23,0.32
2013-6-2,74.9,70.1,65.4,65.0,59.9,55.0,93,72,50,29.74,29.60,4,1,20,0.41
2013-6-3,66.7,59.8,48.7,55.6,45.9,36.2,80,62,38,29.97,29.74,3,2,12,0.00
2013-6-4,71.2,57.3,39.7,47.8,42.2,37.0,92,61,34,30.02,29.97,1,0,11,0.00
2013-6-5,79.4,66.9,49.9,59.3,47.5,42.0,78,53,31,30.01,29.77,1,0,10,0.00
2013-6-6,67.1,63.5,56.4,63.4,60.3,54.1,93,90,74,29.77,29.64,3,1,13,0.95
2013-6-7,62.0,57.1,55.3,55.4,52.3,51.5,93,84,77,29.75,29.67,7,1,12,0.00
2013-6-8,73.2,63.0,55.4,56.4,52.7,50.1,90,71,48,29.97,29.75,8,0,8,0.00
2013-6-9,78.8,68.1,55.4,62.2,57.5,52.2,91,71,52,30.01,29.85,11,1,12,0.00
2013-6-10,71.8,66.6,61.5,67.7,63.1,59.0,93,89,76,29.83,29.63,11,0,13,0.71
2013-6-11,78.1,68.9,61.5,63.6,61.6,59.2,94,79,57,29.75,29.65,14,1,15,0.02
2013-6-12,81.1,73.1,63.9,70.8,64.7,59.7,88,76,58,29.77,29.52,13,0,14,0.23
2013-6-13,71.1,65.6,60.2,65.4,57.3,48.5,92,76,47,29.72,29.38,22,4,28,0.44
2013-6-14,72.5,62.3,55.3,57.1,53.5,49.2,89,74,52,29.95,29.71,13,2,13,0.00
2013-6-15,78.1,63.9,47.4,57.2,51.9,44.2,93,68,35,30.00,29.84,10,0,10,0.00
2013-6-16,69.4,64.8,63.1,66.7,59.8,55.6,92,84,71,29.86,29.74,13,0,13,0.18
2013-6-17,82.0,68.9,63.4,65.4,61.8,54.6,94,81,39,29.82,29.76,3,0,22,0.38
2013-6-18,77.0,67.5,59.8,63.8,59.2,50.8,93,76,58,29.86,29.72,4,1,14,0.00
2013-6-19,74.9,63.5,51.6,51.5,46.7,42.4,84,58,34,30.03,29.86,2,1,12,0.00
2013-6-20,80.4,66.3,49.5,56.0,49.7,42.9,91,60,30,30.09,30.02,1,0,7,0.00
2013-6-21,84.3,75.6,55.7,60.9,58.7,52.9,91,58,37,30.11,30.00,6,0,8,0.00
2013-6-22,86.7,72.5,59.8,67.4,62.2,56.9,91,72,45,30.03,29.91,10,0,10,0.00
2013-6-23,86.5,76.9,65.6,69.6,65.0,60.1,93,69,45,29.99,29.89,13,0,13,0.00
2013-6-24,86.7,75.7,62.6,67.5,63.1,59.1,91,67,45,29.98,29.84,11,0,11,0.00
2013-6-25,86.7,75.8,69.3,71.3,67.0,64.4,89,75,56,29.88,29.73,13,1,23,0.43
2013-6-26,74.0,67.4,65.6,70.0,65.3,63.8,94,93,82,29.79,29.71,11,0,11,0.72
2013-6-27,79.8,71.8,66.6,70.3,66.0,63.6,93,83,61,29.65,29.51,1,0,11,0.20
2013-6-28,69.7,66.6,65.6,66.6,64.7,63.8,94,94,90,29.49,29.44,4,0,4,1.06
2013-6-29,74.8,66.4,60.1,64.9,60.8,58.1,93,83,59,29.54,29.41,0,0,7,0.06
2013-6-30,79.0,69.0,60.9,65.6,62.4,58.9,94,81,58,29.71,29.55,2,0,10,0.04
2013-7-1,76.2,67.8,64.4,67.3,63.2,61.1,91,85,68,29.81,29.68,3,0,13,0.08
2013-7-2,80.6,70.4,65.5,67.3,64.5,63.4,93,83,61,29.88,29.79,1,0,10,0.04
2013-7-3,84.5,76.1,68.1,69.7,67.5,65.4,92,76,56,30.00,29.90,9,0,9,0.09
2013-7-4,77.6,71.9,68.4,68.7,66.8,65.3,93,84,69,30.06,29.98,7,0,7,0.03
2013-7-5,77.2,70.3,67.6,69.7,66.8,65.5,93,89,75,30.02,29.95,8,0,9,0.33
2013-7-6,82.4,74.4,67.9,70.5,68.3,66.1,94,82,63,30.01,29.87,1,0,7,0.00
2013-7-7,78.2,72.1,67.0,68.0,64.6,62.7,88,78,62,29.96,29.86,1,0,9,0.01
2013-7-8,83.0,72.0,61.7,69.9,64.7,59.0,92,79,60,29.97,29.90,1,0,12,0.18
2013-7-9,84.3,74.5,67.6,75.6,70.2,65.2,94,87,69,29.93,29.80,21,0,22,0.41
2013-7-10,85.5,73.7,65.0,76.3,69.4,63.2,95,87,72,29.84,29.63,21,0,21,1.74
2013-7-11,76.5,68.6,59.3,63.6,58.8,50.9,96,73,42,29.89,29.77,16,1,16,0.01
2013-7-12,77.2,67.1,56.0,63.9,58.7,53.7,94,76,52,29.96,29.88,13,0,14,0.00
2013-7-13,83.2,72.6,60.5,67.1,62.7,57.1,90,73,52,30.07,29.95,11,0,12,0.00
2013-7-14,87.8,77.7,68.1,70.8,67.2,64.1,89,71,52,30.11,30.04,8,0,9,0.00
2013-7-15,91.0,79.9,68.8,71.8,68.7,66.1,92,71,47,30.18,30.09,6,0,7,0.00
2013-7-16,90.1,78.1,69.6,73.7,70.4,67.5,94,79,53,30.17,30.11,18,1,19,0.00
2013-7-17,91.3,81.3,71.2,73.6,71.6,69.4,94,75,50,30.14,30.00,1,0,11,0.00
2013-7-18,92.5,86.3,72.4,75.3,72.4,70.0,93,64,50,30.03,29.87,12,0,12,0.00
2013-7-19,89.0,79.5,72.0,73.9,71.0,68.9,91,77,56,29.87,29.74,14,1,14,0.00
2013-7-20,79.5,73.4,70.5,69.2,67.6,65.6,91,82,67,29.78,29.67,2,0,16,0.03
2013-7-21,83.0,74.1,69.3,68.3,67.0,64.7,94,80,55,29.82,29.75,4,0,15,0.00
2013-7-22,73.7,68.8,65.6,70.6,65.9,62.8,93,90,85,29.81,29.63,1,0,9,0.63
2013-7-23,79.8,69.0,63.9,70.3,65.0,62.1,95,88,68,29.66,29.54,10,0,11,0.15
2013-7-24,70.3,64.8,56.6,64.4,54.1,50.0,93,69,51,29.89,29.63,13,1,16,0.00
2013-7-25,64.2,55.5,50.1,53.6,50.3,47.9,92,83,69,29.95,29.89,8,0,8,0.00
2013-7-26,79.0,72.2,50.8,59.0,55.6,48.6,92,58,37,29.96,29.84,8,0,8,0.00
2013-7-27,70.1,65.2,61.0,65.8,61.1,57.3,90,87,79,29.84,29.69,9,0,12,0.08
2013-7-28,63.4,63.4,63.4,60.4,60.4,60.4,90,90,90,29.71,29.71,0,0,0,0.00
2013-7-29,71.4,62.2,53.2,56.1,52.2,50.0,89,71,50,30.05,29.89,2,0,13,0.00
2013-7-30,77.0,64.7,51.8,59.1,54.6,49.8,95,73,47,30.09,30.01,1,0,8,0.00
2013-8-1,80.5,74.0,62.6,62.7,58.8,54.2,86,60,44,29.79,29.73,12,1,12,0.00
2013-8-2,73.7,65.5,56.3,62.1,57.5,52.0,93,77,49,29.87,29.77,11,0,12,0.03
2013-8-3,78.6,68.9,58.9,64.7,58.4,49.6,94,72,42,29.88,29.78,14,1,14,0.19
2013-8-4,73.2,63.5,54.1,59.0,53.4,49.2,94,72,46,29.98,29.86,16,1,16,0.02
2013-8-5,73.2,62.4,50.1,57.5,53.0,48.1,94,74,45,30.00,29.87,7,0,7,0.00
2013-8-6,80.5,68.2,55.6,59.0,56.2,52.6,93,69,41,29.89,29.81,10,0,10,0.00
2013-8-7,79.2,68.9,61.0,69.8,63.8,57.4,92,84,70,29.83,29.76,11,0,16,0.77
2013-8-8,82.2,72.7,68.3,73.4,69.3,66.0,94,89,69,29.83,29.75,13,0,13,0.28
2013-8-9,78.3,70.1,62.1,68.3,64.0,52.9,95,82,54,29.89,29.74,10,0,10,0.25
2013-8-10,80.9,74.6,64.2,65.5,62.0,55.8,79,65,54,29.96,29.91,6,0,7,0.00
2013-8-11,81.4,70.0,62.1,65.7,59.7,54.2,85,70,55,29.99,29.88,8,0,9,0.00
2013-8-12,82.0,71.3,59.6,66.5,62.1,57.6,94,75,52,29.93,29.71,8,0,10,0.00
2013-8-13,74.4,66.6,53.3,66.0,53.8,45.8,82,64,52,29.87,29.71,23,4,23,0.00
2013-8-14,66.9,56.8,49.2,53.8,49.3,47.0,93,77,53,30.04,29.86,13,1,13,0.01
2013-8-15,72.8,62.3,47.7,55.1,49.5,45.5,94,66,41,30.08,29.98,6,0,7,0.01
2013-8-16,73.7,60.0,53.1,55.2,51.1,48.3,91,74,43,30.03,29.99,9,0,9,0.00
2013-8-20,84.0,74.6,56.6,63.8,61.3,54.6,94,65,45,30.05,29.98,8,0,8,0.00
2013-8-21,84.3,71.3,58.3,66.3,62.1,56.1,94,75,45,30.06,29.91,7,0,7,0.01
2013-8-22,81.1,70.2,62.7,69.6,64.6,60.3,92,83,66,29.95,29.86,11,0,11,0.00
2013-8-23,81.6,73.8,61.3,68.2,57.9,51.7,93,59,42,30.03,29.91,10,0,12,0.04
2013-8-24,66.0,58.1,55.3,56.0,52.2,51.0,86,81,71,30.16,30.03,7,0,7,0.00
2013-8-25,67.6,65.6,63.9,59.4,58.8,58.1,83,79,72,30.12,30.10,0,0,0,0.00
2013-8-26,84.9,72.1,60.1,67.9,61.4,55.3,86,71,46,30.10,29.87,11,0,12,0.00
2013-8-27,77.4,72.7,69.6,71.7,68.3,65.4,92,86,79,29.90,29.77,10,0,11,0.21
2013-8-28,79.9,74.9,70.9,72.7,69.8,66.8,93,84,72,29.80,29.67,14,1,15,0.01
2013-8-29,84.9,74.3,68.3,68.7,66.3,62.5,93,78,48,29.91,29.79,7,0,9,0.00
2013-8-30,86.3,74.0,61.6,69.4,65.7,59.8,95,77,52,29.86,29.67,11,0,14,0.00
2013-8-31,71.6,70.9,69.9,68.1,67.2,66.1,90,88,87,29.67,29.57,9,0,9,0.01
2013-9-2,78.8,72.9,68.6,70.7,68.5,66.8,94,86,72,29.65,29.64,8,0,8,0.00
2013-9-3,64.7,61.4,55.0,58.1,54.3,51.7,94,78,66,29.92,29.78,12,1,13,0.01
2013-9-4,71.5,56.0,50.7,58.8,52.6,48.8,95,89,61,30.00,29.92,9,0,9,0.01
2013-9-5,73.3,65.5,52.2,59.3,50.7,40.1,90,61,34,30.09,29.99,18,1,18,0.00
2013-9-6,73.5,58.6,43.6,50.6,45.8,37.4,94,67,29,30.15,29.99,12,0,12,0.00
2013-9-7,81.1,64.4,47.6,62.2,54.2,45.7,94,72,41,29.99,29.80,10,0,10,0.00
2013-9-8,75.3,68.1,58.0,68.7,60.7,50.6,92,78,64,29.92,29.76,13,2,13,0.15
2013-9-9,84.5,67.3,52.8,72.0,61.1,49.7,92,81,56,29.94,29.84,8,0,9,0.02
2013-9-10,91.2,79.1,70.1,73.8,70.2,65.9,88,75,55,29.95,29.86,10,1,11,0.00
2013-9-11,90.3,78.8,71.5,72.8,70.2,66.4,92,76,54,29.98,29.83,10,0,10,0.00
2013-9-12,73.2,71.3,68.9,67.0,66.4,65.5,90,85,81,29.83,29.78,5,0,5,0.00
2013-9-13,60.1,59.5,57.5,52.1,51.8,50.8,82,76,74,29.82,29.80,12,6,13,0.14
2013-9-14,52.3,49.9,47.6,47.0,45.9,44.6,90,86,77,30.04,30.01,1,0,1,0.01
2013-9-15,47.4,47.4,47.4,44.6,44.6,44.6,90,90,90,30.02,30.02,0,0,0,0.00
2013-9-16,67.6,60.2,49.2,54.1,49.6,46.1,89,69,51,30.20,30.07,16,4,19,0.02
2013-9-17,71.1,60.7,43.8,51.1,47.7,42.2,94,64,44,30.27,30.11,12,2,12,0.01
2013-9-18,73.2,60.1,46.5,58.9,51.5,42.8,88,74,55,30.11,29.96,8,1,9,0.00
2013-9-19,73.3,65.7,61.5,63.6,61.0,57.9,94,85,70,29.99,29.87,6,0,6,0.00
2013-9-20,80.1,70.8,64.2,69.4,65.9,61.9,94,85,66,29.89,29.65,8,1,8,0.00
2013-9-21,70.9,64.0,54.4,67.2,59.9,51.8,94,87,68,29.68,29.51,20,1,20,0.64
2013-9-22,54.4,51.8,50.5,51.8,50.0,49.0,95,94,91,29.74,29.68,4,0,4,0.00
2013-9-24,68.8,58.7,44.9,48.3,45.5,42.7,94,64,41,30.01,29.85,10,1,11,0.01
2013-9-25,75.3,56.5,42.3,55.7,48.3,40.4,95,77,41,29.85,29.75,8,1,9,0.00
2013-9-26,74.6,59.6,46.2,53.3,47.0,38.4,95,68,30,29.97,29.81,10,1,10,0.01
2013-9-27,67.6,52.0,47.3,52.7,47.5,44.6,95,86,54,30.06,29.96,13,1,14,0.00
2013-10-2,80.1,72.0,59.8,65.2,61.8,58.1,94,71,52,29.95,29.89,7,0,8,0.01
2013-10-3,80.5,66.9,61.0,67.9,63.0,58.9,95,88,62,29.94,29.86,14,0,14,0.26
2013-10-4,80.9,68.6,62.0,67.3,63.4,60.4,95,85,56,29.95,29.89,10,0,10,0.01
2013-10-6,80.7,72.2,63.2,68.2,63.8,57.8,96,76,57,29.76,29.57,13,4,14,0.15
2013-10-7,62.6,62.6,62.6,57.7,57.7,57.7,84,84,84,29.59,29.59,5,5,11,0.00
2013-10-8,54.2,51.5,48.8,43.8,43.3,42.7,80,73,65,30.16,30.14,5,0,5,0.00
2013-10-9,68.9,61.2,48.3,45.9,42.6,38.2,82,52,34,30.19,30.09,13,2,13,0.00
2013-10-10,52.9,50.2,48.8,40.9,40.2,39.5,71,69,63,30.09,30.05,7,0,7,0.00
2013-10-18,48.2,47.9,47.4,40.7,40.5,40.2,76,75,75,29.83,29.82,0,0,1,0.70
2013-10-19,53.3,45.4,39.5,46.4,40.7,36.9,91,84,71,29.82,29.61,13,2,14,0.12
2013-10-20,58.7,46.5,36.6,41.0,37.5,34.2,91,72,47,29.89,29.82,13,3,13,0.00
2013-10-21,63.2,52.7,42.2,46.2,38.0,35.1,80,59,36,29.89,29.72,13,4,16,0.00
2013-10-22,51.6,42.8,33.5,46.7,32.9,26.8,90,70,44,29.86,29.72,14,2,15,0.14
2013-10-23,42.6,38.3,35.0,36.7,32.8,28.8,94,81,61,29.83,29.65,14,2,14,0.02
2013-10-24,45.4,36.4,30.7,32.8,29.7,26.1,89,77,49,30.06,29.82,16,1,16,0.02
2013-10-25,47.0,37.4,30.4,32.5,29.3,26.1,90,74,49,30.24,30.05,13,1,13,0.00
2013-10-26,45.8,39.9,32.8,34.7,26.9,24.0,73,60,43,30.13,29.77,16,4,16,0.00
2013-10-27,51.4,40.8,31.8,35.9,31.4,29.2,92,71,44,29.98,29.88,11,1,11,0.00
2013-10-28,58.0,42.6,28.1,39.2,31.4,25.6,92,69,34,30.19,29.98,10,1,12,0.01
2013-10-29,56.9,44.6,31.8,39.3,35.9,29.8,94,74,47,30.28,30.13,7,0,8,0.00
2013-10-30,64.3,51.8,40.2,52.9,42.9,35.2,87,73,52,30.12,29.92,7,1,7,0.00
2013-10-31,64.7,60.2,56.7,58.1,55.4,52.4,96,84,66,29.92,29.21,23,8,23,0.34
2013-11-1,65.3,56.3,50.7,57.3,47.6,41.1,90,73,60,29.52,29.15,24,7,24,0.37
2013-11-2,48.5,45.7,42.3,44.2,41.7,39.3,92,86,72,29.89,29.55,12,1,13,0.12
2013-11-3,46.7,40.2,31.2,39.6,31.9,23.6,92,73,49,30.35,29.89,15,2,15,0.00
2013-11-4,46.0,36.6,28.1,26.7,23.8,21.3,76,61,42,30.41,30.28,14,3,14,0.00
2013-11-5,58.9,49.0,40.3,40.7,33.7,24.8,67,56,44,30.33,30.17,9,2,9,0.00
2013-11-6,58.9,47.3,42.1,46.7,36.2,32.3,69,65,59,30.17,29.99,11,4,11,0.00
2013-11-7,43.2,40.5,37.9,37.8,30.1,23.8,89,67,50,30.03,29.93,18,4,21,0.40
2013-11-8,42.5,36.1,28.2,30.0,25.1,22.5,86,65,48,30.19,30.00,11,2,12,0.00
2013-11-9,57.5,43.7,27.9,36.2,28.1,23.4,85,57,31,30.17,29.82,22,5,22,0.00
2013-11-10,51.6,41.8,32.9,36.9,30.7,25.4,79,65,51,30.19,29.83,15,2,16,0.00
2013-11-11,46.4,38.0,29.4,36.5,29.0,25.4,93,72,48,30.18,29.91,22,5,23,0.06
2013-11-12,32.4,28.3,25.8,29.8,23.7,18.3,93,83,66,30.41,30.03,21,6,22,0.01
2013-11-13,36.3,30.4,24.5,22.5,18.3,15.5,75,61,48,30.45,30.24,12,3,14,0.01
2013-11-14,47.4,37.5,28.1,21.5,18.1,15.1,66,47,28,30.25,30.03,18,7,18,0.00
2013-11-15,53.5,44.7,35.9,29.5,22.1,15.7,58,41,26,30.07,29.97,16,4,16,0.00
2013-11-16,56.9,49.0,37.8,48.7,41.4,28.8,85,75,56,30.08,29.82,14,5,14,0.00
2013-11-17,60.1,56.6,51.6,56.3,51.4,39.1,92,83,54,29.84,29.33,25,10,26,0.68
2013-11-18,53.8,44.3,35.8,39.7,32.1,23.8,81,62,49,29.98,29.46,24,5,25,0.00
2013-11-19,37.8,33.8,27.3,25.1,22.5,19.7,75,63,52,30.31,29.96,18,4,19,0.00
2013-11-20,44.9,35.1,25.1,21.7,17.0,10.0,78,51,28,30.34,30.20,15,4,19,0.00
2013-11-21,51.7,42.1,34.0,40.2,30.2,14.0,86,64,38,30.29,30.08,13,3,13,0.15
2013-11-22,50.7,45.7,34.6,49.0,41.9,27.1,94,87,65,30.19,29.97,26,5,26,0.08
2013-11-23,34.7,27.6,19.5,28.2,19.4,6.8,85,72,51,30.31,30.10,29,6,29,0.00
2013-11-24,21.3,18.1,14.9,12.5,6.6,1.3,75,61,47,30.47,30.31,29,4,29,0.00
2013-11-25,34.4,24.2,14.8,26.3,10.7,5.7,88,58,36,30.41,30.09,20,5,20,0.00
2013-11-26,31.6,30.4,29.1,29.5,27.7,25.8,93,90,86,30.10,29.71,11,2,11,0.01
2013-11-27,29.7,26.2,21.5,27.9,22.2,11.0,93,85,57,30.04,29.68,22,8,25,0.00
2013-11-28,26.4,21.4,13.5,19.4,14.4,6.8,79,74,67,30.33,30.06,10,2,11,0.00
2013-11-29,34.0,25.9,18.0,21.8,17.6,14.0,87,71,55,30.56,30.33,9,1,10,0.11
2013-11-30,37.8,29.8,22.4,24.5,20.5,15.8,79,68,57,30.50,30.08,9,4,13,0.00
2013-12-1,39.5,35.9,30.6,28.5,26.2,23.0,74,68,60,30.08,29.85,10,2,10,0.00
2013-12-2,40.2,35.6,31.9,32.3,29.8,26.6,88,79,73,29.85,29.73,8,1,8,0.00
2013-12-3,52.5,40.8,32.9,40.7,34.8,29.4,90,80,61,29.80,29.74,10,2,10,0.01
2013-12-4,57.4,46.7,39.1,46.7,40.0,35.1,86,78,67,29.83,29.68,8,3,12,0.00
2013-12-5,60.3,49.8,33.7,57.3,44.1,29.7,95,81,61,29.99,29.65,16,6,18,0.12
2013-12-6,33.7,26.8,0.0,30.0,23.9,0.0,86,69,86,30.14,29.91,8,6,15,0.00
2013-12-7,26.1,20.2,0.0,23.8,14.7,0.0,91,75,68,30.51,30.14,6,3,15,0.01
2013-12-8,27.6,21.0,12.4,24.2,14.9,8.6,87,77,62,30.51,29.95,6,3,20,0.00
2013-12-9,34.6,30.3,25.6,32.8,24.0,17.2,93,77,69,30.05,29.83,13,2,15,0.01
2013-12-10,25.6,24.7,22.9,18.2,16.9,15.8,82,72,69,30.03,30.00,10,2,11,0.00
2013-12-11,28.3,20.3,15.5,19.2,11.4,7.8,82,68,55,30.29,30.14,6,2,15,0.00
2013-12-12,20.0,15.1,5.6,9.8,0.3,-5.9,78,53,35,30.40,30.17,14,3,20,0.00
2013-12-13,32.4,23.8,14.8,17.0,10.1,0.9,68,56,48,30.18,30.08,9,1,10,0.00
2013-12-14,36.2,30.5,26.0,34.6,25.6,16.7,94,82,61,30.11,29.55,14,3,14,0.00
2013-12-15,35.6,24.1,16.2,33.8,18.6,7.3,94,80,65,29.97,29.55,19,4,23,0.00
2013-12-16,23.2,19.2,14.1,19.6,10.3,7.0,86,68,54,30.09,29.92,8,1,10,0.00
2013-12-17,29.1,26.0,23.0,26.8,21.0,16.6,91,81,66,29.96,29.83,12,2,13,0.00
2013-12-18,29.1,25.2,22.2,20.4,17.5,13.6,82,72,58,30.08,29.94,14,3,16,0.00
2013-12-19,46.4,38.3,29.4,31.3,23.8,14.2,70,56,49,29.97,29.86,14,5,14,0.13
2013-12-20,53.9,48.5,42.6,50.7,38.6,25.7,90,69,45,29.86,29.71,18,7,18,0.04
2013-12-21,63.1,56.3,53.6,59.5,53.1,49.5,94,89,84,29.72,29.37,20,7,22,1.17
2013-12-22,68.3,56.5,45.8,58.2,48.9,39.6,94,76,57,29.83,29.30,26,8,29,0.48
2013-12-23,46.0,34.0,27.6,40.6,26.7,16.7,91,75,61,30.20,29.83,15,3,16,0.05
2013-12-24,27.6,17.9,12.1,20.7,9.5,4.1,84,69,57,30.47,30.16,15,3,20,0.00
2013-12-25,27.5,19.8,10.2,21.9,10.8,4.8,82,69,48,30.44,30.08,14,4,14,0.00
2013-12-26,35.6,29.6,26.6,24.1,18.6,12.5,82,64,45,30.24,30.00,20,4,20,0.00
2013-12-27,43.5,35.0,26.9,26.8,22.8,16.1,69,61,49,30.25,30.12,12,3,12,0.00
2013-12-28,50.7,41.4,34.9,31.3,26.7,22.7,65,56,44,30.12,29.90,13,6,13,0.00
2013-12-29,42.5,39.9,32.2,39.3,31.6,21.0,93,74,42,29.90,29.59,21,2,24,0.19
2013-12-30,32.4,23.4,20.6,28.8,14.4,7.0,88,69,49,30.13,29.78,19,5,24,0.00
2013-12-31,23.0,20.9,18.8,17.9,13.0,8.1,82,71,60,30.21,29.98,12,2,21,0.00
2014-1-1,28.7,23.6,20.8,21.0,17.4,14.6,80,77,71,30.24,29.99,11,2,11,0.00
2014-1-2,23.2,18.0,11.4,18.0,13.1,3.2,86,81,69,30.00,29.68,28,7,32,0.00